Time,TemperatureF,DewpointF,PressureIn,WindDirection,WindDirectionDegrees,WindSpeedMPH,WindSpeedGustMPH,Humidity,HourlyPrecipIn,Conditions,Clouds,dailyrainin,SoftwareType,DateUTC
2013-05-30 00:02:00,75.9,71.8,30.03,ENE,68,3.5,4.6,87,0.00,RA,,0.00,WeatherDisplay:10.37,2013-05-30 10:02:00,
2013-05-30 00:07:00,75.9,71.8,30.03,ENE,68,0.0,1.2,87,0.00,RA,,0.00,WeatherDisplay:10.37,2013-05-30 10:07:00,
2013-05-30 00:12:00,75.7,71.6,30.02,ESE,112,3.5,4.6,87,0.00,CLR,,0.00,WeatherDisplay:10.37,2013-05-30 10:12:00,
2013-05-30 00:18:00,75.4,71.3,30.02,NE,45,3.0,4.6,87,0.00,CLR,,0.00,WeatherDisplay:10.37,2013-05-30 10:18:00,
2013-05-30 00:23:00,75.4,71.3,30.02,East,90,0.3,1.7,87,0.00,CLR,,0.00,WeatherDisplay:10.37,2013-05-30 10:23:00,
2013-05-30 00:28:00,75.2,71.1,30.02,NW,315,0.0,0.0,87,0.00,CLR,,0.00,WeatherDisplay:10.37,2013-05-30 10:28:00,
2013-05-30 00:33:00,75.2,71.1,30.02,NW,315,0.0,1.7,87,0.00,CLR,,0.00,WeatherDisplay:10.37,2013-05-30 10:33:00,
2013-05-30 00:38:00,75.2,71.1,30.02,West,270,2.4,2.4,87,0.00,CLR,,0.00,WeatherDisplay:10.37,2013-05-30 10:38:00,
2013-05-30 00:43:00,75.0,71.2,30.02,NW,315,2.2,2.3,88,0.00,CLR,,0.00,WeatherDisplay:10.37,2013-05-30 10:43:00,
2013-05-30 00:48:00,75.0,71.2,30.02,NW,315,0.0,0.0,88,0.00,CLR,,0.00,WeatherDisplay:10.37,2013-05-30 10:48:00,
2013-05-30 00:53:00,75.0,71.5,30.02,NNW,338,1.3,1.7,89,0.00,CLR,,0.00,WeatherDisplay:10.37,2013-05-30 10:53:00,
2013-05-30 00:58:00,74.8,71.3,30.02,NNW,338,1.0,1.2,89,0.00,CLR,,0.00,WeatherDisplay:10.37,2013-05-30 10:58:00,
2013-05-30 01:03:00,74.8,71.7,30.01,NNW,338,0.5,2.3,90,0.00,CLR,,0.00,WeatherDisplay:10.37,2013-05-30 11:03:00,
2013-05-30 01:08:00,74.8,71.7,30.01,WSW,248,1.2,2.2,90,0.00,CLR,,0.00,WeatherDisplay:10.37,2013-05-30 11:08:00,
2013-05-30 01:13:00,74.8,71.7,30.00,West,270,0.0,0.0,90,0.00,CLR,,0.00,WeatherDisplay:10.37,2013-05-30 11:13:00,
2013-05-30 01:18:00,74.7,71.6,30.00,East,90,0.0,0.0,90,0.00,CLR,,0.00,WeatherDisplay:10.37,2013-05-30 11:18:00,
2013-05-30 01:23:00,74.8,72.0,30.00,ESE,112,0.0,0.0,91,0.00,CLR,,0.00,WeatherDisplay:10.37,2013-05-30 11:23:00,
2013-05-30 01:29:00,75.0,72.2,30.00,ESE,112,1.8,2.3,91,0.00,CLR,,0.00,WeatherDisplay:10.37,2013-05-30 11:29:00,
2013-05-30 01:34:00,75.0,72.5,30.00,SW,225,2.1,2.3,92,0.00,CLR,,0.00,WeatherDisplay:10.37,2013-05-30 11:34:00,
2013-05-30 01:39:00,75.0,72.5,30.00,West,270,2.2,2.3,92,0.00,CLR,,0.00,WeatherDisplay:10.37,2013-05-30 11:39:00,
2013-05-30 01:44:00,75.0,72.5,30.00,West,270,1.3,2.3,92,0.00,CLR,,0.00,WeatherDisplay:10.37,2013-05-30 11:44:00,
2013-05-30 01:49:00,75.2,72.7,29.99,SW,225,0.0,0.0,92,0.00,CLR,,0.00,WeatherDisplay:10.37,2013-05-30 11:49:00,
2013-05-30 01:54:00,75.2,72.7,29.99,SE,135,0.0,0.0,92,0.00,CLR,,0.00,WeatherDisplay:10.37,2013-05-30 11:54:00,
2013-05-30 01:59:00,75.4,72.9,29.99,SE,135,0.0,0.0,92,0.00,CLR,,0.00,WeatherDisplay:10.37,2013-05-30 11:59:00,
2013-05-30 02:04:00,75.4,72.9,29.99,ESE,112,0.0,0.0,92,0.00,CLR,,0.00,WeatherDisplay:10.37,2013-05-30 12:04:00,
2013-05-30 02:09:00,75.4,72.9,29.99,ESE,112,0.0,0.0,92,0.00,CLR,,0.00,WeatherDisplay:10.37,2013-05-30 12:09:00,
2013-05-30 02:14:00,75.6,73.4,29.99,ESE,112,0.0,2.3,93,0.00,CLR,,0.00,WeatherDisplay:10.37,2013-05-30 12:14:00,
2013-05-30 02:19:00,75.6,73.4,29.99,ESE,112,0.0,0.0,93,0.00,CLR,,0.00,WeatherDisplay:10.37,2013-05-30 12:19:00,
2013-05-30 02:24:00,75.6,73.4,29.98,ESE,112,0.0,0.0,93,0.00,CLR,,0.00,WeatherDisplay:10.37,2013-05-30 12:24:00,
2013-05-30 02:29:00,75.6,73.4,29.98,ESE,112,0.0,0.0,93,0.00,CLR,,0.00,WeatherDisplay:10.37,2013-05-30 12:29:00,
2013-05-30 02:35:00,75.7,73.5,29.98,ESE,112,0.0,0.0,93,0.00,CLR,,0.00,WeatherDisplay:10.37,2013-05-30 12:35:00,
2013-05-30 02:40:00,75.7,73.5,29.98,ESE,120,2.0,5.0,93,0.00,CLR,,0.00,WeatherDisplay:10.37,2013-05-30 12:40:00,
2013-05-30 02:45:00,75.7,73.5,29.98,SE,135,1.0,3.0,93,0.00,CLR,,0.00,WeatherDisplay:10.37,2013-05-30 12:45:00,
2013-05-30 02:50:00,75.7,73.8,29.98,SW,219,2.0,3.0,94,0.00,CLR,,0.00,WeatherDisplay:10.37,2013-05-30 12:50:00,
2013-05-30 02:55:00,75.9,74.0,29.98,SW,225,3.9,3.9,94,0.00,CLR,,0.00,WeatherDisplay:10.37,2013-05-30 12:55:00,
2013-05-30 03:00:00,75.7,73.8,29.98,SW,234,3.0,5.0,94,0.00,RA,,0.01,WeatherDisplay:10.37,2013-05-30 13:00:00,
2013-05-30 03:05:00,75.7,73.8,29.98,WSW,247,2.0,5.0,94,0.00,RA,,0.01,WeatherDisplay:10.37,2013-05-30 13:05:00,
2013-05-30 03:10:00,75.9,74.0,29.98,SW,235,2.0,5.0,94,0.00,CLR,,0.01,WeatherDisplay:10.37,2013-05-30 13:10:00,
2013-05-30 03:15:00,75.9,74.0,29.98,WSW,247,1.0,3.0,94,0.00,CLR,,0.01,WeatherDisplay:10.37,2013-05-30 13:15:00,
2013-05-30 03:20:00,75.9,74.0,29.98,WNW,300,0.0,0.0,94,0.00,CLR,,0.01,WeatherDisplay:10.37,2013-05-30 13:20:00,
2013-05-30 03:25:00,75.9,74.0,29.96,NE,40,0.0,0.0,94,0.00,CLR,,0.01,WeatherDisplay:10.37,2013-05-30 13:25:00,
2013-05-30 03:30:00,75.9,74.0,29.96,SSE,159,2.0,4.0,94,0.00,CLR,,0.01,WeatherDisplay:10.37,2013-05-30 13:30:00,
2013-05-30 03:35:00,75.9,74.0,29.97,SW,215,2.0,3.0,94,0.00,CLR,,0.01,WeatherDisplay:10.37,2013-05-30 13:35:00,
2013-05-30 03:40:00,75.9,74.0,29.97,WSW,248,1.5,1.5,94,0.01,CLR,,0.01,WeatherDisplay:10.37,2013-05-30 13:40:00,
2013-05-30 03:45:00,75.9,74.0,29.97,WSW,248,1.0,2.0,94,0.00,CLR,,0.01,WeatherDisplay:10.37,2013-05-30 13:45:00,
2013-05-30 03:50:00,75.9,74.0,29.97,SW,225,1.3,1.3,94,0.01,CLR,,0.01,WeatherDisplay:10.37,2013-05-30 13:50:00,
2013-05-30 03:55:00,75.9,74.0,29.97,WSW,245,0.0,0.0,94,0.00,CLR,,0.01,WeatherDisplay:10.37,2013-05-30 13:55:00,
2013-05-30 04:00:00,75.9,74.0,29.96,SW,226,0.0,0.0,94,0.00,CLR,,0.01,WeatherDisplay:10.37,2013-05-30 14:00:00,
2013-05-30 04:05:00,75.9,74.0,29.96,SSW,204,0.0,3.0,94,0.00,CLR,,0.01,WeatherDisplay:10.37,2013-05-30 14:05:00,
2013-05-30 04:10:00,75.9,74.0,29.96,West,270,2.5,3.5,94,0.00,CLR,,0.01,WeatherDisplay:10.37,2013-05-30 14:10:00,
2013-05-30 04:15:00,75.9,74.0,29.97,West,263,2.0,2.0,94,0.00,CLR,,0.01,WeatherDisplay:10.37,2013-05-30 14:15:00,
2013-05-30 04:20:00,75.9,74.0,29.97,SW,229,0.0,0.0,94,0.00,CLR,,0.01,WeatherDisplay:10.37,2013-05-30 14:20:00,
2013-05-30 04:25:00,75.9,74.0,29.97,WSW,242,0.0,0.0,94,0.00,CLR,,0.01,WeatherDisplay:10.37,2013-05-30 14:25:00,
2013-05-30 04:30:00,75.9,74.0,29.97,ESE,112,0.0,0.0,94,0.00,CLR,,0.01,WeatherDisplay:10.37,2013-05-30 14:30:00,
2013-05-30 04:35:00,75.9,74.0,29.97,SSW,202,0.0,0.0,94,0.00,CLR,,0.01,WeatherDisplay:10.37,2013-05-30 14:35:00,
2013-05-30 04:40:00,75.9,74.0,29.97,West,270,0.0,0.0,94,0.00,CLR,,0.01,WeatherDisplay:10.37,2013-05-30 14:40:00,
2013-05-30 04:45:00,75.9,74.0,29.97,NNW,338,0.0,0.0,94,0.00,CLR,,0.01,WeatherDisplay:10.37,2013-05-30 14:45:00,
2013-05-30 04:50:00,75.9,74.0,29.97,NNW,338,0.0,0.0,94,0.00,CLR,,0.01,WeatherDisplay:10.37,2013-05-30 14:50:00,
2013-05-30 04:55:00,75.9,74.0,29.97,NNW,338,0.0,0.0,94,0.00,CLR,,0.01,WeatherDisplay:10.37,2013-05-30 14:55:00,
2013-05-30 05:00:00,75.9,74.0,29.97,NNW,338,0.0,0.0,94,0.00,CLR,,0.01,WeatherDisplay:10.37,2013-05-30 15:00:00,
2013-05-30 05:05:00,75.9,74.0,29.97,NNW,338,0.0,0.0,94,0.00,CLR,,0.01,WeatherDisplay:10.37,2013-05-30 15:05:00,
2013-05-30 05:10:00,75.9,74.0,29.97,NNW,338,0.0,1.2,94,0.00,CLR,,0.01,WeatherDisplay:10.37,2013-05-30 15:10:00,
2013-05-30 05:15:00,75.9,74.0,29.97,NNW,338,1.8,2.3,94,0.00,CLR,,0.01,WeatherDisplay:10.37,2013-05-30 15:15:00,
2013-05-30 05:20:00,75.9,74.0,29.97,SE,135,2.5,2.5,94,0.00,CLR,,0.02,WeatherDisplay:10.37,2013-05-30 15:20:00,
2013-05-30 05:25:00,76.1,74.2,29.97,ESE,112,1.1,2.3,94,0.01,RA,,0.02,WeatherDisplay:10.37,2013-05-30 15:25:00,
2013-05-30 05:30:00,76.1,74.2,29.97,ENE,68,2.3,2.3,94,0.02,RA,,0.03,WeatherDisplay:10.37,2013-05-30 15:30:00,
2013-05-30 05:35:00,76.3,74.4,29.97,WNW,292,2.6,3.2,94,0.03,RA,,0.04,WeatherDisplay:10.37,2013-05-30 15:35:00,
2013-05-30 05:41:00,76.3,74.8,29.97,West,270,2.4,2.7,95,0.03,RA,,0.04,WeatherDisplay:10.37,2013-05-30 15:41:00,
2013-05-30 05:46:00,76.3,74.8,29.97,West,270,2.7,3.5,95,0.03,CLR,,0.04,WeatherDisplay:10.37,2013-05-30 15:46:00,
2013-05-30 05:51:00,76.3,74.8,29.97,NNE,22,0.8,2.3,95,0.03,CLR,,0.04,WeatherDisplay:10.37,2013-05-30 15:51:00,
2013-05-30 05:56:00,76.5,75.0,29.97,NE,45,0.0,1.2,95,0.03,CLR,,0.04,WeatherDisplay:10.37,2013-05-30 15:56:00,
2013-05-30 06:01:00,76.5,74.6,29.97,NNE,22,0.0,0.0,94,0.03,CLR,,0.04,WeatherDisplay:10.37,2013-05-30 16:01:00,
2013-05-30 06:06:00,76.5,74.6,29.97,SSW,202,1.1,1.2,94,0.03,CLR,,0.04,WeatherDisplay:10.37,2013-05-30 16:06:00,
2013-05-30 06:11:00,76.6,75.1,29.98,SSW,202,0.0,0.0,95,0.03,CLR,,0.04,WeatherDisplay:10.37,2013-05-30 16:11:00,
2013-05-30 06:16:00,76.8,75.3,29.98,SW,225,1.8,2.3,95,0.03,CLR,,0.04,WeatherDisplay:10.37,2013-05-30 16:16:00,
2013-05-30 06:21:00,77.5,75.6,29.98,SW,225,0.0,0.0,94,0.02,CLR,,0.04,WeatherDisplay:10.37,2013-05-30 16:21:00,
2013-05-30 06:26:00,78.4,76.8,29.98,SSE,158,1.9,2.3,95,0.02,CLR,,0.04,WeatherDisplay:10.37,2013-05-30 16:26:00,
2013-05-30 06:32:00,78.8,76.9,29.98,SW,225,1.7,2.3,94,0.01,CLR,,0.04,WeatherDisplay:10.37,2013-05-30 16:32:00,
2013-05-30 06:37:00,78.6,76.7,29.98,SW,225,2.2,2.3,94,0.00,CLR,,0.04,WeatherDisplay:10.37,2013-05-30 16:37:00,
2013-05-30 06:42:00,78.4,76.5,29.98,South,180,1.4,1.4,94,0.00,CLR,,0.04,WeatherDisplay:10.37,2013-05-30 16:42:00,
2013-05-30 06:47:00,77.9,75.7,29.98,WSW,248,2.6,2.6,93,0.00,CLR,,0.04,WeatherDisplay:10.37,2013-05-30 16:47:00,
2013-05-30 06:52:00,77.7,75.5,29.99,NE,45,1.4,1.7,93,0.00,CLR,,0.04,WeatherDisplay:10.37,2013-05-30 16:52:00,
2013-05-30 06:57:00,78.1,75.6,29.99,ENE,68,1.0,2.3,92,0.00,CLR,,0.04,WeatherDisplay:10.37,2013-05-30 16:57:00,
2013-05-30 07:02:00,78.4,75.6,29.99,ENE,68,1.7,3.2,91,0.00,CLR,,0.04,WeatherDisplay:10.37,2013-05-30 17:02:00,
2013-05-30 07:07:00,78.6,75.1,29.99,ESE,112,3.1,3.5,89,0.00,CLR,,0.04,WeatherDisplay:10.37,2013-05-30 17:07:00,
2013-05-30 07:12:00,79.0,74.8,29.99,SSE,158,2.8,2.8,87,0.00,CLR,,0.04,WeatherDisplay:10.37,2013-05-30 17:12:00,
2013-05-30 07:17:00,78.8,74.3,29.99,ENE,68,4.0,5.3,86,0.00,CLR,,0.04,WeatherDisplay:10.37,2013-05-30 17:17:00,
2013-05-30 07:22:00,78.8,73.6,29.99,East,90,6.2,6.2,84,0.00,CLR,,0.04,WeatherDisplay:10.37,2013-05-30 17:22:00,
2013-05-30 07:27:00,77.9,72.7,29.99,NE,45,3.4,5.8,84,0.00,CLR,,0.04,WeatherDisplay:10.37,2013-05-30 17:27:00,
2013-05-30 07:32:00,78.4,73.5,29.99,West,270,0.0,1.2,85,0.00,CLR,,0.04,WeatherDisplay:10.37,2013-05-30 17:32:00,
2013-05-30 07:37:00,78.8,73.9,29.99,ESE,112,1.4,1.7,85,0.00,CLR,,0.04,WeatherDisplay:10.37,2013-05-30 17:37:00,
2013-05-30 07:42:00,79.0,73.4,29.99,East,90,6.3,6.9,83,0.00,CLR,,0.04,WeatherDisplay:10.37,2013-05-30 17:42:00,
2013-05-30 07:47:00,79.7,74.1,29.99,NE,45,3.7,5.3,83,0.00,CLR,,0.04,WeatherDisplay:10.37,2013-05-30 17:47:00,
2013-05-30 07:53:00,80.8,74.4,29.99,ESE,112,6.1,6.9,81,0.00,CLR,,0.04,WeatherDisplay:10.37,2013-05-30 17:53:00,
2013-05-30 07:58:00,79.7,73.0,29.99,East,90,4.0,4.6,80,0.00,CLR,,0.04,WeatherDisplay:10.37,2013-05-30 17:58:00,
2013-05-30 08:03:00,79.7,73.0,29.98,NNW,338,5.5,6.9,80,0.00,CLR,,0.04,WeatherDisplay:10.37,2013-05-30 18:03:00,
2013-05-30 08:08:00,77.7,71.8,29.98,East,90,4.3,5.8,82,0.00,CLR,,0.04,WeatherDisplay:10.37,2013-05-30 18:08:00,
2013-05-30 08:13:00,78.8,73.2,29.99,SE,135,3.1,3.5,83,0.00,CLR,,0.04,WeatherDisplay:10.37,2013-05-30 18:13:00,
2013-05-30 08:18:00,78.8,72.8,29.99,WNW,292,3.0,3.7,82,0.00,CLR,,0.04,WeatherDisplay:10.37,2013-05-30 18:18:00,
2013-05-30 08:23:00,79.3,73.3,29.99,East,90,6.2,6.9,82,0.00,CLR,,0.04,WeatherDisplay:10.37,2013-05-30 18:23:00,
2013-05-30 08:28:00,79.2,72.9,29.99,ESE,112,4.9,6.9,81,0.00,CLR,,0.04,WeatherDisplay:10.37,2013-05-30 18:28:00,
2013-05-30 08:33:00,78.6,72.6,29.99,South,180,3.1,5.8,82,0.00,CLR,,0.04,WeatherDisplay:10.37,2013-05-30 18:33:00,
2013-05-30 08:38:00,78.4,72.4,29.99,North,360,4.9,5.8,82,0.00,CLR,,0.04,WeatherDisplay:10.37,2013-05-30 18:38:00,
2013-05-30 08:43:00,78.6,72.3,29.99,SSE,158,6.6,6.9,81,0.00,CLR,,0.04,WeatherDisplay:10.37,2013-05-30 18:43:00,
2013-05-30 08:48:00,78.4,72.4,29.99,ESE,112,6.1,6.1,82,0.00,CLR,,0.04,WeatherDisplay:10.37,2013-05-30 18:48:00,
2013-05-30 08:53:00,78.4,72.4,29.99,ESE,112,3.7,3.7,82,0.00,CLR,,0.04,WeatherDisplay:10.37,2013-05-30 18:53:00,
2013-05-30 08:58:00,78.6,72.6,29.99,East,90,3.7,9.2,82,0.00,CLR,,0.04,WeatherDisplay:10.37,2013-05-30 18:58:00,
2013-05-30 09:03:00,79.2,72.5,29.99,East,90,4.9,10.4,80,0.00,CLR,,0.04,WeatherDisplay:10.37,2013-05-30 19:03:00,
2013-05-30 09:09:00,79.7,72.6,29.99,NE,45,5.7,6.9,79,0.00,CLR,,0.04,WeatherDisplay:10.37,2013-05-30 19:09:00,
2013-05-30 09:14:00,80.8,73.3,29.99,ESE,112,5.8,8.1,78,0.00,CLR,,0.04,WeatherDisplay:10.37,2013-05-30 19:14:00,
2013-05-30 09:19:00,81.0,73.5,29.99,SW,225,5.0,5.8,78,0.00,CLR,,0.04,WeatherDisplay:10.37,2013-05-30 19:19:00,
2013-05-30 09:24:00,79.3,71.8,29.99,ENE,68,8.3,10.4,78,0.00,CLR,,0.04,WeatherDisplay:10.37,2013-05-30 19:24:00,
2013-05-30 09:29:00,79.2,72.1,29.99,East,90,7.3,7.3,79,0.00,CLR,,0.04,WeatherDisplay:10.37,2013-05-30 19:29:00,
2013-05-30 09:34:00,78.8,72.5,29.99,ESE,112,6.3,8.1,81,0.00,CLR,,0.04,WeatherDisplay:10.37,2013-05-30 19:34:00,
2013-05-30 09:39:00,78.8,72.5,29.99,East,90,6.1,8.1,81,0.00,CLR,,0.04,WeatherDisplay:10.37,2013-05-30 19:39:00,
2013-05-30 09:44:00,79.5,73.2,29.99,NNE,22,3.2,3.7,81,0.00,CLR,,0.04,WeatherDisplay:10.37,2013-05-30 19:44:00,
2013-05-30 09:49:00,81.5,73.6,29.99,ESE,112,8.2,10.4,77,0.00,CLR,,0.04,WeatherDisplay:10.37,2013-05-30 19:49:00,
2013-05-30 09:54:00,81.0,72.7,29.99,ESE,112,6.0,9.2,76,0.00,CLR,,0.04,WeatherDisplay:10.37,2013-05-30 19:54:00,
2013-05-30 09:59:00,81.0,72.3,29.98,East,90,7.0,11.5,75,0.00,CLR,,0.04,WeatherDisplay:10.37,2013-05-30 19:59:00,
2013-05-30 10:04:00,81.1,72.8,29.98,NE,45,6.3,6.9,76,0.00,CLR,,0.04,WeatherDisplay:10.37,2013-05-30 20:04:00,
2013-05-30 10:09:00,79.7,71.8,29.98,NNE,22,7.3,8.3,77,0.00,CLR,,0.04,WeatherDisplay:10.37,2013-05-30 20:09:00,
2013-05-30 10:14:00,79.9,72.0,29.98,SE,135,7.7,10.4,77,0.00,CLR,,0.04,WeatherDisplay:10.37,2013-05-30 20:14:00,
2013-05-30 10:20:00,81.3,73.8,29.98,East,90,3.7,6.9,78,0.00,CLR,,0.04,WeatherDisplay:10.37,2013-05-30 20:20:00,
2013-05-30 10:25:00,82.4,72.9,29.98,ESE,103,8.0,10.0,73,0.00,CLR,,0.04,WeatherDisplay:10.37,2013-05-30 20:25:00,
2013-05-30 10:30:00,82.2,73.0,29.98,East,98,7.0,12.0,74,0.00,CLR,,0.04,WeatherDisplay:10.37,2013-05-30 20:30:00,
2013-05-30 10:35:00,81.3,72.6,29.98,East,90,7.0,13.0,75,0.00,CLR,,0.04,WeatherDisplay:10.37,2013-05-30 20:35:00,
2013-05-30 10:40:00,81.9,73.2,29.98,East,79,8.0,12.0,75,0.00,CLR,,0.04,WeatherDisplay:10.37,2013-05-30 20:40:00,
2013-05-30 10:45:00,82.1,72.9,29.98,East,88,6.0,11.0,74,0.00,CLR,,0.04,WeatherDisplay:10.37,2013-05-30 20:45:00,
2013-05-30 10:50:00,82.3,73.2,29.98,East,89,6.0,10.0,74,0.00,CLR,,0.04,WeatherDisplay:10.37,2013-05-30 20:50:00,
2013-05-30 10:55:00,82.6,73.1,29.98,East,90,7.0,10.0,73,0.00,CLR,,0.04,WeatherDisplay:10.37,2013-05-30 20:55:00,
2013-05-30 11:00:00,81.9,72.8,29.97,ESE,112,7.3,11.5,74,0.00,CLR,,0.04,WeatherDisplay:10.37,2013-05-30 21:00:00,
2013-05-30 11:05:00,81.9,72.8,29.97,East,90,8.0,9.2,74,0.00,CLR,,0.04,WeatherDisplay:10.37,2013-05-30 21:05:00,
2013-05-30 11:10:00,82.0,72.9,29.97,East,90,8.2,10.4,74,0.00,CLR,,0.04,WeatherDisplay:10.37,2013-05-30 21:10:00,
2013-05-30 11:15:00,81.5,72.0,29.97,East,90,5.8,6.9,73,0.00,CLR,,0.04,WeatherDisplay:10.37,2013-05-30 21:15:00,
2013-05-30 11:20:00,81.7,72.6,29.97,East,90,3.7,10.4,74,0.00,CLR,,0.04,WeatherDisplay:10.37,2013-05-30 21:20:00,
2013-05-30 11:25:00,82.4,72.0,29.97,NE,45,5.3,9.2,71,0.00,CLR,,0.04,WeatherDisplay:10.37,2013-05-30 21:25:00,
2013-05-30 11:30:00,81.5,71.6,29.97,ESE,112,8.0,9.2,72,0.00,CLR,,0.04,WeatherDisplay:10.37,2013-05-30 21:30:00,
2013-05-30 11:35:00,82.8,72.8,29.97,NE,45,6.8,10.4,72,0.00,CLR,,0.04,WeatherDisplay:10.37,2013-05-30 21:35:00,
2013-05-30 11:40:00,83.7,74.1,29.97,ESE,112,6.3,7.8,73,0.00,CLR,,0.04,WeatherDisplay:10.37,2013-05-30 21:40:00,
2013-05-30 11:45:00,83.7,73.7,29.97,ESE,112,4.3,7.3,72,0.00,CLR,,0.04,WeatherDisplay:10.37,2013-05-30 21:45:00,
2013-05-30 11:50:00,81.7,72.2,29.96,North,360,8.5,10.4,73,0.00,CLR,,0.04,WeatherDisplay:10.37,2013-05-30 21:50:00,
2013-05-30 11:55:00,81.9,72.4,29.96,ENE,68,8.4,10.4,73,0.00,CLR,,0.04,WeatherDisplay:10.37,2013-05-30 21:55:00,
2013-05-30 12:00:00,81.5,73.2,29.96,East,90,6.6,10.4,76,0.00,CLR,,0.04,WeatherDisplay:10.37,2013-05-30 22:00:00,
2013-05-30 12:06:00,82.4,73.7,29.96,ENE,68,6.7,9.2,75,0.00,CLR,,0.04,WeatherDisplay:10.37,2013-05-30 22:06:00,
2013-05-30 12:11:00,82.0,73.3,29.95,NNE,22,5.8,6.9,75,0.00,CLR,,0.04,WeatherDisplay:10.37,2013-05-30 22:11:00,
2013-05-30 12:16:00,81.7,72.6,29.95,ENE,68,8.8,11.5,74,0.00,CLR,,0.04,WeatherDisplay:10.37,2013-05-30 22:16:00,
2013-05-30 12:21:00,81.1,72.4,29.95,NNW,338,7.8,8.1,75,0.00,CLR,,0.04,WeatherDisplay:10.37,2013-05-30 22:21:00,
2013-05-30 12:26:00,82.0,73.7,29.95,SW,225,3.7,3.7,76,0.00,CLR,,0.04,WeatherDisplay:10.37,2013-05-30 22:26:00,
2013-05-30 12:31:00,81.0,72.7,29.95,East,90,5.3,6.9,76,0.00,CLR,,0.04,WeatherDisplay:10.37,2013-05-30 22:31:00,
2013-05-30 12:36:00,81.3,71.8,29.95,East,90,7.4,10.4,73,0.00,CLR,,0.04,WeatherDisplay:10.37,2013-05-30 22:36:00,
2013-05-30 12:41:00,81.7,72.2,29.95,NNE,22,6.0,9.2,73,0.00,CLR,,0.04,WeatherDisplay:10.37,2013-05-30 22:41:00,
2013-05-30 12:46:00,81.5,72.4,29.95,East,90,7.0,8.1,74,0.00,CLR,,0.04,WeatherDisplay:10.37,2013-05-30 22:46:00,
2013-05-30 12:51:00,80.2,71.6,29.95,East,90,6.3,6.9,75,0.00,CLR,,0.04,WeatherDisplay:10.37,2013-05-30 22:51:00,
2013-05-30 12:56:00,81.9,72.8,29.95,East,90,5.4,9.2,74,0.00,CLR,,0.04,WeatherDisplay:10.37,2013-05-30 22:56:00,
2013-05-30 13:01:00,83.1,73.5,29.94,NNE,22,7.1,11.5,73,0.00,CLR,,0.04,WeatherDisplay:10.37,2013-05-30 23:01:00,
2013-05-30 13:06:00,81.7,72.6,29.94,East,90,5.6,7.3,74,0.00,CLR,,0.04,WeatherDisplay:10.37,2013-05-30 23:06:00,
2013-05-30 13:11:00,82.2,72.7,29.94,East,90,3.7,6.9,73,0.00,CLR,,0.04,WeatherDisplay:10.37,2013-05-30 23:11:00,
2013-05-30 13:16:00,82.2,72.7,29.94,SE,135,5.0,8.3,73,0.00,CLR,,0.04,WeatherDisplay:10.37,2013-05-30 23:16:00,
2013-05-30 13:22:00,81.1,71.6,29.94,North,360,5.2,7.3,73,0.00,CLR,,0.04,WeatherDisplay:10.37,2013-05-30 23:22:00,
2013-05-30 13:27:00,80.6,71.5,29.95,NE,45,6.2,8.1,74,0.00,CLR,,0.04,WeatherDisplay:10.37,2013-05-30 23:27:00,
2013-05-30 13:32:00,82.8,73.7,29.95,ESE,112,6.0,8.1,74,0.00,CLR,,0.04,WeatherDisplay:10.37,2013-05-30 23:32:00,
2013-05-30 13:37:00,82.2,72.7,29.94,NE,45,6.3,8.1,73,0.00,CLR,,0.04,WeatherDisplay:10.37,2013-05-30 23:37:00,
2013-05-30 13:42:00,81.0,72.7,29.94,ESE,112,3.8,5.8,76,0.00,CLR,,0.04,WeatherDisplay:10.37,2013-05-30 23:42:00,
2013-05-30 13:47:00,81.7,72.6,29.94,NE,45,7.0,11.5,74,0.00,CLR,,0.04,WeatherDisplay:10.37,2013-05-30 23:47:00,
2013-05-30 13:52:00,81.3,73.0,29.94,WNW,292,5.1,5.8,76,0.00,CLR,,0.04,WeatherDisplay:10.37,2013-05-30 23:52:00,
2013-05-30 13:57:00,81.1,72.4,29.94,East,90,6.4,8.1,75,0.00,CLR,,0.04,WeatherDisplay:10.37,2013-05-30 23:57:00,
2013-05-30 14:02:00,80.1,71.8,29.94,NNW,338,8.8,9.2,76,0.00,CLR,,0.04,WeatherDisplay:10.37,2013-05-31 00:02:00,
2013-05-30 14:07:00,80.1,72.2,29.94,East,90,7.0,8.1,77,0.00,CLR,,0.04,WeatherDisplay:10.37,2013-05-31 00:07:00,
2013-05-30 14:12:00,79.5,71.7,29.94,West,270,5.9,7.3,77,0.00,CLR,,0.04,WeatherDisplay:10.37,2013-05-31 00:12:00,
2013-05-30 14:17:00,80.8,72.5,29.94,NNE,22,6.2,9.2,76,0.00,CLR,,0.04,WeatherDisplay:10.37,2013-05-31 00:17:00,
2013-05-30 14:22:00,81.3,73.0,29.94,NNW,338,7.2,9.2,76,0.00,CLR,,0.04,WeatherDisplay:10.37,2013-05-31 00:22:00,
2013-05-30 14:28:00,80.6,72.7,29.94,ESE,112,6.0,7.8,77,0.00,CLR,,0.04,WeatherDisplay:10.37,2013-05-31 00:28:00,
2013-05-30 14:33:00,80.2,72.7,29.94,NNE,22,8.0,9.2,78,0.00,CLR,,0.04,WeatherDisplay:10.37,2013-05-31 00:33:00,
2013-05-30 14:38:00,80.2,72.7,29.93,NNE,22,8.8,9.2,78,0.00,CLR,,0.04,WeatherDisplay:10.37,2013-05-31 00:38:00,
2013-05-30 14:43:00,80.1,72.6,29.93,West,270,4.6,11.5,78,0.00,CLR,,0.04,WeatherDisplay:10.37,2013-05-31 00:43:00,
2013-05-30 14:48:00,81.3,73.0,29.93,North,360,7.0,7.0,76,0.00,CLR,,0.04,WeatherDisplay:10.37,2013-05-31 00:48:00,
2013-05-30 14:53:00,82.2,73.9,29.93,NNW,338,6.3,6.9,76,0.00,CLR,,0.04,WeatherDisplay:10.37,2013-05-31 00:53:00,
2013-05-30 14:58:00,81.1,72.4,29.93,NNW,338,8.9,10.4,75,0.00,CLR,,0.04,WeatherDisplay:10.37,2013-05-31 00:58:00,
2013-05-30 15:03:00,80.8,73.3,29.93,ENE,68,4.9,7.3,78,0.00,CLR,,0.04,WeatherDisplay:10.37,2013-05-31 01:03:00,
2013-05-30 15:08:00,79.3,71.8,29.93,NE,45,6.5,8.1,78,0.00,CLR,,0.04,WeatherDisplay:10.37,2013-05-31 01:08:00,
2013-05-30 15:13:00,80.1,72.2,29.93,East,90,6.2,9.4,77,0.00,CLR,,0.04,WeatherDisplay:10.37,2013-05-31 01:13:00,
2013-05-30 15:18:00,79.7,71.5,29.93,WNW,292,5.3,6.9,76,0.00,CLR,,0.04,WeatherDisplay:10.37,2013-05-31 01:18:00,
2013-05-30 15:23:00,80.4,72.1,29.92,NNE,22,6.3,6.9,76,0.00,CLR,,0.04,WeatherDisplay:10.37,2013-05-31 01:23:00,
2013-05-30 15:28:00,80.8,72.1,29.92,West,270,4.0,5.8,75,0.00,CLR,,0.04,WeatherDisplay:10.37,2013-05-31 01:28:00,
2013-05-30 15:33:00,79.9,71.3,29.92,SSE,158,5.3,9.2,75,0.00,CLR,,0.04,WeatherDisplay:10.37,2013-05-31 01:33:00,
2013-05-30 15:38:00,80.8,72.9,29.92,South,180,3.2,6.9,77,0.00,CLR,,0.04,WeatherDisplay:10.37,2013-05-31 01:38:00,
2013-05-30 15:43:00,80.4,71.7,29.92,East,90,7.4,9.2,75,0.00,CLR,,0.04,WeatherDisplay:10.37,2013-05-31 01:43:00,
2013-05-30 15:49:00,80.1,71.8,29.93,ESE,112,6.3,8.1,76,0.00,CLR,,0.04,WeatherDisplay:10.37,2013-05-31 01:49:00,
2013-05-30 15:54:00,79.7,71.8,29.93,East,90,8.4,10.4,77,0.00,CLR,,0.04,WeatherDisplay:10.37,2013-05-31 01:54:00,
2013-05-30 15:59:00,79.5,71.7,29.92,ENE,68,3.4,5.8,77,0.00,CLR,,0.04,WeatherDisplay:10.37,2013-05-31 01:59:00,
2013-05-30 16:04:00,79.9,72.0,29.92,ESE,112,5.8,8.1,77,0.00,CLR,,0.04,WeatherDisplay:10.37,2013-05-31 02:04:00,
2013-05-30 16:09:00,80.1,72.2,29.92,ENE,68,5.8,7.3,77,0.00,CLR,,0.04,WeatherDisplay:10.37,2013-05-31 02:09:00,
2013-05-30 16:14:00,80.1,71.8,29.92,East,90,5.4,6.3,76,0.00,CLR,,0.04,WeatherDisplay:10.37,2013-05-31 02:14:00,
2013-05-30 16:19:00,79.7,73.0,29.92,ESE,112,11.5,12.7,80,0.00,CLR,,0.04,WeatherDisplay:10.37,2013-05-31 02:19:00,
2013-05-30 16:24:00,78.6,73.4,29.93,NE,45,8.6,9.2,84,0.00,CLR,,0.04,WeatherDisplay:10.37,2013-05-31 02:24:00,
2013-05-30 16:29:00,77.7,72.5,29.93,SSE,158,7.5,8.1,84,0.00,CLR,,0.04,WeatherDisplay:10.37,2013-05-31 02:29:00,
2013-05-30 16:34:00,78.3,73.8,29.93,SE,135,3.3,4.7,86,0.00,CLR,,0.04,WeatherDisplay:10.37,2013-05-31 02:34:00,
2013-05-30 16:39:00,78.1,73.6,29.92,ENE,68,2.0,3.5,86,0.00,CLR,,0.04,WeatherDisplay:10.37,2013-05-31 02:39:00,
2013-05-30 16:44:00,78.3,73.8,29.92,ESE,112,5.0,5.0,86,0.00,CLR,,0.04,WeatherDisplay:10.37,2013-05-31 02:44:00,
2013-05-30 16:49:00,78.3,73.8,29.92,ESE,112,4.1,5.8,86,0.00,CLR,,0.04,WeatherDisplay:10.37,2013-05-31 02:49:00,
2013-05-30 16:54:00,78.1,73.6,29.92,NNW,338,3.6,5.8,86,0.00,CLR,,0.04,WeatherDisplay:10.37,2013-05-31 02:54:00,
2013-05-30 17:00:00,78.3,73.8,29.92,ENE,74,6.0,8.0,86,0.00,CLR,,0.04,WeatherDisplay:10.37,2013-05-31 03:00:00,
2013-05-30 17:05:00,77.9,73.0,29.92,East,82,6.0,8.0,85,0.00,CLR,,0.04,WeatherDisplay:10.37,2013-05-31 03:05:00,
2013-05-30 17:10:00,78.1,72.9,29.92,ESE,103,6.0,6.0,84,0.00,CLR,,0.04,WeatherDisplay:10.37,2013-05-31 03:10:00,
2013-05-30 17:15:00,78.3,73.1,29.93,ESE,116,2.0,7.0,84,0.00,CLR,,0.04,WeatherDisplay:10.37,2013-05-31 03:15:00,
2013-05-30 17:20:00,78.3,73.1,29.93,ENE,71,2.0,7.0,84,0.00,CLR,,0.04,WeatherDisplay:10.37,2013-05-31 03:20:00,
2013-05-30 17:25:00,78.2,72.6,29.92,ENE,67,8.0,9.0,83,0.00,CLR,,0.04,WeatherDisplay:10.37,2013-05-31 03:25:00,
2013-05-30 17:30:00,78.1,72.5,29.92,East,94,6.0,9.0,83,0.00,CLR,,0.04,WeatherDisplay:10.37,2013-05-31 03:30:00,
2013-05-30 17:35:00,78.3,72.7,29.93,East,90,9.4,9.4,83,0.00,CLR,,0.04,WeatherDisplay:10.37,2013-05-31 03:35:00,
2013-05-30 17:40:00,78.1,72.5,29.93,East,91,5.0,9.0,83,0.00,CLR,,0.04,WeatherDisplay:10.37,2013-05-31 03:40:00,
2013-05-30 17:45:00,78.2,72.6,29.93,East,101,5.0,7.0,83,0.00,CLR,,0.04,WeatherDisplay:10.37,2013-05-31 03:45:00,
2013-05-30 17:50:00,78.1,72.5,29.93,NNE,22,3.2,3.7,83,0.00,CLR,,0.04,WeatherDisplay:10.37,2013-05-31 03:50:00,
2013-05-30 17:55:00,78.1,72.5,29.93,SSE,158,6.3,6.3,83,0.00,CLR,,0.04,WeatherDisplay:10.37,2013-05-31 03:55:00,
2013-05-30 18:00:00,78.1,72.5,29.93,ENE,68,4.7,5.8,83,0.00,CLR,,0.04,WeatherDisplay:10.37,2013-05-31 04:00:00,
2013-05-30 18:01:00,78.1,72.5,29.93,NNE,22,3.9,5.8,83,0.00,CLR,,0.04,WeatherDisplay:10.37,2013-05-31 04:01:00,
2013-05-30 18:02:00,78.1,72.5,29.93,ESE,112,3.5,4.6,83,0.00,CLR,,0.04,WeatherDisplay:10.37,2013-05-31 04:02:00,
2013-05-30 18:07:00,78.3,72.7,29.93,ESE,112,3.8,4.6,83,0.00,CLR,,0.04,WeatherDisplay:10.37,2013-05-31 04:07:00,
2013-05-30 18:12:00,78.1,72.2,29.93,East,90,3.0,4.6,82,0.00,CLR,,0.04,WeatherDisplay:10.37,2013-05-31 04:12:00,
2013-05-30 18:17:00,77.7,72.1,29.93,East,90,3.2,5.8,83,0.01,RA,,0.05,WeatherDisplay:10.37,2013-05-31 04:17:00,
2013-05-30 18:22:00,77.5,72.6,29.93,NE,45,4.3,4.7,85,0.01,RA,,0.05,WeatherDisplay:10.37,2013-05-31 04:22:00,
2013-05-30 18:27:00,77.2,72.3,29.94,SE,135,4.8,6.9,85,0.01,CLR,,0.05,WeatherDisplay:10.37,2013-05-31 04:27:00,
2013-05-30 18:32:00,77.2,72.7,29.94,ESE,112,4.2,6.9,86,0.01,CLR,,0.05,WeatherDisplay:10.37,2013-05-31 04:32:00,
2013-05-30 18:37:00,77.0,72.5,29.94,East,90,5.1,7.8,86,0.01,CLR,,0.05,WeatherDisplay:10.37,2013-05-31 04:37:00,
2013-05-30 18:42:00,76.8,72.3,29.94,ESE,112,5.4,8.1,86,0.01,CLR,,0.05,WeatherDisplay:10.37,2013-05-31 04:42:00,
2013-05-30 18:48:00,77.0,72.5,29.94,ESE,112,7.0,8.1,86,0.01,CLR,,0.05,WeatherDisplay:10.37,2013-05-31 04:48:00,
2013-05-30 18:53:00,77.0,72.5,29.94,ENE,68,4.3,5.8,86,0.01,CLR,,0.05,WeatherDisplay:10.37,2013-05-31 04:53:00,
2013-05-30 18:58:00,77.0,72.5,29.94,East,90,9.0,10.4,86,0.01,CLR,,0.05,WeatherDisplay:10.37,2013-05-31 04:58:00,
2013-05-30 19:03:00,77.0,72.5,29.95,ESE,112,5.0,5.8,86,0.01,CLR,,0.05,WeatherDisplay:10.37,2013-05-31 05:03:00,
2013-05-30 19:08:00,77.0,72.5,29.95,ESE,112,5.3,6.9,86,0.01,CLR,,0.05,WeatherDisplay:10.37,2013-05-31 05:08:00,
2013-05-30 19:13:00,76.8,72.3,29.95,NE,45,5.5,6.9,86,0.01,CLR,,0.05,WeatherDisplay:10.37,2013-05-31 05:13:00,
2013-05-30 19:18:00,76.5,71.7,29.95,East,90,6.5,9.2,85,0.00,CLR,,0.05,WeatherDisplay:10.37,2013-05-31 05:18:00,
2013-05-30 19:23:00,76.5,71.7,29.95,SE,135,2.8,5.3,85,0.00,CLR,,0.05,WeatherDisplay:10.37,2013-05-31 05:23:00,
2013-05-30 19:28:00,76.5,71.3,29.95,ESE,112,9.1,10.9,84,0.00,CLR,,0.05,WeatherDisplay:10.37,2013-05-31 05:28:00,
2013-05-30 19:33:00,76.5,71.3,29.95,ESE,112,5.3,5.8,84,0.00,CLR,,0.05,WeatherDisplay:10.37,2013-05-31 05:33:00,
2013-05-30 19:38:00,76.5,71.3,29.96,East,90,5.8,7.8,84,0.00,CLR,,0.05,WeatherDisplay:10.37,2013-05-31 05:38:00,
2013-05-30 19:43:00,76.5,71.3,29.96,ESE,112,2.5,4.6,84,0.00,CLR,,0.05,WeatherDisplay:10.37,2013-05-31 05:43:00,
2013-05-30 19:48:00,76.5,71.3,29.97,East,90,6.8,6.8,84,0.00,CLR,,0.05,WeatherDisplay:10.37,2013-05-31 05:48:00,
2013-05-30 19:53:00,76.5,71.3,29.97,SSE,158,5.1,5.1,84,0.00,CLR,,0.05,WeatherDisplay:10.37,2013-05-31 05:53:00,
2013-05-30 19:59:00,76.5,71.3,29.97,NE,45,3.2,4.6,84,0.00,CLR,,0.05,WeatherDisplay:10.37,2013-05-31 05:59:00,
2013-05-30 20:04:00,76.3,71.1,29.97,NE,45,3.8,5.8,84,0.00,CLR,,0.05,WeatherDisplay:10.37,2013-05-31 06:04:00,
2013-05-30 20:09:00,76.3,71.1,29.97,ESE,112,3.2,4.7,84,0.00,CLR,,0.05,WeatherDisplay:10.37,2013-05-31 06:09:00,
2013-05-30 20:14:00,76.3,71.1,29.98,SE,135,4.4,5.8,84,0.00,CLR,,0.05,WeatherDisplay:10.37,2013-05-31 06:14:00,
2013-05-30 20:19:00,76.3,71.1,29.98,ENE,68,3.8,4.6,84,0.00,CLR,,0.05,WeatherDisplay:10.37,2013-05-31 06:19:00,
2013-05-30 20:24:00,76.3,71.1,29.98,NE,45,2.9,5.8,84,0.00,CLR,,0.05,WeatherDisplay:10.37,2013-05-31 06:24:00,
2013-05-30 20:29:00,76.3,70.8,29.98,ESE,112,5.3,5.8,83,0.00,CLR,,0.05,WeatherDisplay:10.37,2013-05-31 06:29:00,
2013-05-30 20:34:00,76.3,70.8,29.98,ESE,112,3.3,6.3,83,0.00,CLR,,0.05,WeatherDisplay:10.37,2013-05-31 06:34:00,
2013-05-30 20:39:00,76.3,70.8,29.98,ESE,112,5.0,6.9,83,0.00,CLR,,0.05,WeatherDisplay:10.37,2013-05-31 06:39:00,
2013-05-30 20:44:00,76.1,70.6,29.98,ENE,68,5.7,5.8,83,0.00,CLR,,0.05,WeatherDisplay:10.37,2013-05-31 06:44:00,
2013-05-30 20:49:00,76.1,70.6,29.98,South,180,1.7,3.2,83,0.00,CLR,,0.05,WeatherDisplay:10.37,2013-05-31 06:49:00,
2013-05-30 20:54:00,76.1,70.6,29.98,East,90,4.0,4.6,83,0.00,CLR,,0.05,WeatherDisplay:10.37,2013-05-31 06:54:00,
2013-05-30 20:59:00,76.1,70.6,29.99,ESE,112,4.6,6.3,83,0.00,CLR,,0.05,WeatherDisplay:10.37,2013-05-31 06:59:00,
2013-05-30 21:04:00,76.1,70.6,29.99,East,90,4.4,7.3,83,0.00,CLR,,0.05,WeatherDisplay:10.37,2013-05-31 07:04:00,
2013-05-30 21:10:00,76.1,70.9,29.99,East,87,1.0,7.0,84,0.00,CLR,,0.05,WeatherDisplay:10.37,2013-05-31 07:10:00,
2013-05-30 21:15:00,76.1,70.9,29.99,East,86,2.0,6.0,84,0.00,CLR,,0.05,WeatherDisplay:10.37,2013-05-31 07:15:00,
2013-05-30 21:20:00,76.1,70.9,29.99,East,94,1.0,3.0,84,0.00,CLR,,0.05,WeatherDisplay:10.37,2013-05-31 07:20:00,
2013-05-30 21:25:00,76.1,70.9,29.98,East,92,2.0,3.0,84,0.00,CLR,,0.05,WeatherDisplay:10.37,2013-05-31 07:25:00,
2013-05-30 21:30:00,76.1,70.9,29.98,East,86,1.0,5.0,84,0.00,CLR,,0.05,WeatherDisplay:10.37,2013-05-31 07:30:00,
2013-05-30 21:35:00,75.9,70.7,29.98,East,96,3.0,5.0,84,0.00,CLR,,0.05,WeatherDisplay:10.37,2013-05-31 07:35:00,
2013-05-30 21:40:00,75.9,70.7,29.99,East,98,1.0,4.0,84,0.00,CLR,,0.05,WeatherDisplay:10.37,2013-05-31 07:40:00,
2013-05-30 21:45:00,75.9,70.7,29.99,East,88,6.0,7.0,84,0.00,CLR,,0.05,WeatherDisplay:10.37,2013-05-31 07:45:00,
2013-05-30 21:50:00,75.7,70.5,29.99,East,85,1.0,5.0,84,0.00,CLR,,0.05,WeatherDisplay:10.37,2013-05-31 07:50:00,
2013-05-30 21:55:00,75.7,70.5,29.99,East,90,1.7,2.3,84,0.00,CLR,,0.05,WeatherDisplay:10.37,2013-05-31 07:55:00,
2013-05-30 22:00:00,75.7,70.5,29.99,North,355,0.0,2.0,84,0.00,CLR,,0.05,WeatherDisplay:10.37,2013-05-31 08:00:00,
2013-05-30 22:05:00,75.6,70.4,29.99,East,90,3.2,5.8,84,0.00,CLR,,0.05,WeatherDisplay:10.37,2013-05-31 08:05:00,
2013-05-30 22:10:00,75.7,70.6,29.99,East,85,2.0,6.0,84,0.00,CLR,,0.05,WeatherDisplay:10.37,2013-05-31 08:10:00,
2013-05-30 22:15:00,76.2,71.1,29.99,ENE,59,2.0,6.0,84,0.00,CLR,,0.05,WeatherDisplay:10.37,2013-05-31 08:15:00,
2013-05-30 22:20:00,75.9,70.7,29.99,NE,47,2.0,6.0,84,0.00,CLR,,0.05,WeatherDisplay:10.37,2013-05-31 08:20:00,
2013-05-30 22:25:00,75.9,70.7,29.99,ENE,61,2.0,6.0,84,0.00,CLR,,0.05,WeatherDisplay:10.37,2013-05-31 08:25:00,
2013-05-30 22:30:00,75.9,70.7,29.99,ESE,102,0.0,6.0,84,0.00,CLR,,0.05,WeatherDisplay:10.37,2013-05-31 08:30:00,
2013-05-30 22:35:00,75.9,71.1,29.99,ESE,115,5.0,6.0,85,0.00,CLR,,0.05,WeatherDisplay:10.37,2013-05-31 08:35:00,
2013-05-30 22:40:00,75.9,71.1,29.99,ENE,78,3.0,6.0,85,0.00,CLR,,0.05,WeatherDisplay:10.37,2013-05-31 08:40:00,
2013-05-30 22:45:00,76.1,71.6,29.99,NE,44,5.0,6.0,86,0.00,CLR,,0.05,WeatherDisplay:10.37,2013-05-31 08:45:00,
2013-05-30 22:50:00,76.1,71.6,29.99,NE,55,7.0,9.0,86,0.00,CLR,,0.05,WeatherDisplay:10.37,2013-05-31 08:50:00,
2013-05-30 22:55:00,76.1,71.6,29.99,East,98,6.0,9.0,86,0.00,CLR,,0.05,WeatherDisplay:10.37,2013-05-31 08:55:00,
2013-05-30 23:00:00,76.1,71.6,29.99,ESE,116,3.0,8.0,86,0.00,CLR,,0.05,WeatherDisplay:10.37,2013-05-31 09:00:00,
2013-05-30 23:05:00,76.3,71.8,29.99,ESE,112,4.2,5.8,86,0.00,CLR,,0.05,WeatherDisplay:10.37,2013-05-31 09:05:00,
2013-05-30 23:10:00,76.1,71.6,29.99,East,90,4.8,6.8,86,0.00,CLR,,0.05,WeatherDisplay:10.37,2013-05-31 09:10:00,
2013-05-30 23:15:00,76.1,71.6,29.99,East,90,4.9,6.9,86,0.00,CLR,,0.05,WeatherDisplay:10.37,2013-05-31 09:15:00,
2013-05-30 23:20:00,76.1,71.6,29.99,East,90,4.7,4.7,86,0.00,CLR,,0.05,WeatherDisplay:10.37,2013-05-31 09:20:00,
2013-05-30 23:25:00,76.1,71.6,29.99,East,90,1.6,2.3,86,0.00,CLR,,0.05,WeatherDisplay:10.37,2013-05-31 09:25:00,
2013-05-30 23:30:00,76.1,71.6,29.99,NNW,338,0.8,2.2,86,0.00,CLR,,0.05,WeatherDisplay:10.37,2013-05-31 09:30:00,
2013-05-30 23:35:00,76.1,71.6,29.98,NE,45,2.7,4.6,86,0.00,CLR,,0.05,WeatherDisplay:10.37,2013-05-31 09:35:00,
2013-05-30 23:40:00,76.1,71.6,29.98,ESE,112,6.6,7.3,86,0.00,CLR,,0.05,WeatherDisplay:10.37,2013-05-31 09:40:00,
2013-05-30 23:45:00,76.3,71.8,29.98,SW,225,1.1,5.8,86,0.00,CLR,,0.05,WeatherDisplay:10.37,2013-05-31 09:45:00,
2013-05-30 23:50:00,76.3,71.8,29.98,ENE,68,2.9,3.5,86,0.00,CLR,,0.05,WeatherDisplay:10.37,2013-05-31 09:50:00,
2013-05-30 23:55:00,76.3,71.8,29.98,East,90,3.8,4.7,86,0.00,CLR,,0.05,WeatherDisplay:10.37,2013-05-31 09:55:00,